Location: Paderno d�Adda
(45.6667°N, 9.4333°E)
Time: 14:08:07
(UTC+00:00)

Meteor 2-5 Rocket - Pass Details

Date: 19 September 2020
Orbit: 833 x 912 km, 81.2° (Epoch: 29 October)

Event Time Altitude Azimuth Distance (km) Brightness Sun altitude
Rises 20:16:18 0° 344° (NNW) 3,420 7.6 -28.8°
Reaches altitude 10° 20:18:46 10° 339° (NNW) 2,489 6.8 -29.2°
Maximum altitude 20:24:11 49° 266° (W) 1,099 4.4 -29.9°
Enters shadow 20:25:14 44° 233° (SW) 1,184 4.4 -30.1°
